Flag for U.S.A. Weather past 2 weeks in Sheboygan, Wisconsin, U.S.A.

56 °F

Scattered clouds.

Feels Like: 56 °F
Forecast: 45 / 62 °F
Wind: No wind

Location: Sheboygan County Memorial Airport

Current Time: Oct 9, 2015 at 7:04:37 PM

Latest Report: Oct 9, 2015 at 5:53 PM

Visibility: 10 mi

Pressure: 30.19 "Hg

Humidity: 58%

Dew point: 41 °F

Location of SheboyganLocation

Historic Weather in Sheboygan — Graph


Sheboygan temperature yesterday

Maximum temperature yesterday: 63 °F (at 11:53 AM)
Minimum temperature yesterday: 40 °F (at 1:53 AM)
Average temperature yesterday: 53 °F

Past Weeks' High & Low Weather Summary

High79 °F (Sep 28, 3:53 PM)100% (Sep 26, 7:03 AM)30.50 "Hg (Sep 26, 7:03 AM)
Low40 °F (Oct 8, 1:53 AM)49% (Oct 6, 1:53 PM)29.83 "Hg (Oct 8, 2:53 PM)
Average56 °F78%30.20 "Hg
* Reported Sep 24 5:53 PM — Oct 9 5:53 PM, Sheboygan, Weather by CustomWeather, © 2015

Note: Actual official high and low records may vary slightly from our data, if they occured in-between our weather recording intervals... More about our weather records


Sheboygan weather history for previous 24 hours

Time TempWeatherWind HumidityBarometerVisibility
5:53 PM
Fri, Oct 9
56 °FScattered clouds.No wind58%30.19 "Hg10 mi
4:53 PM59 °FScattered clouds.7 mph51%30.19 "Hg10 mi
3:53 PM60 °FPartly sunny.6 mph49%30.19 "Hg10 mi
2:53 PM60 °FOvercast.10 mph52%30.18 "Hg10 mi
1:53 PM59 °FPartly sunny.10 mph51%30.19 "Hg10 mi
12:53 PM56 °FPartly sunny.10 mph58%30.20 "Hg10 mi
11:53 AM56 °FOvercast.12 mph62%30.19 "Hg10 mi
10:53 AM54 °FOvercast.12 mph67%30.18 "Hg10 mi
9:53 AM54 °FPartly sunny.13 mph69%30.16 "Hg10 mi
8:53 AM54 °FSunny.12 mph72%30.15 "Hg10 mi
7:53 AM51 °FOvercast.9 mph83%30.12 "Hg10 mi
6:53 AM51 °FMostly cloudy.9 mph83%30.09 "Hg10 mi
6:01 AM52 °FOvercast.10 mph80%30.06 "Hg10 mi
4:53 AM52 °FOvercast.12 mph80%30.01 "Hg10 mi
3:53 AM51 °FPassing clouds.7 mph83%30.00 "Hg10 mi
2:53 AM51 °FClear.12 mph80%29.99 "Hg10 mi
1:53 AM55 °FLight rain. Mostly cloudy.9 mph83%29.97 "Hg10 mi
12:53 AM56 °FMostly cloudy.12 mph87%29.95 "Hg10 mi
11:53 PM
Thu, Oct 8
57 °FOvercast.8 mph87%29.94 "Hg10 mi
10:53 PM57 °FPassing clouds.9 mph87%29.92 "Hg10 mi
9:53 PM58 °FMostly cloudy.12 mph87%29.90 "Hg10 mi
8:53 PM57 °FPassing clouds.5 mph93%29.88 "Hg7 mi
7:53 PM52 °FFog.3 mph97%29.86 "Hg0 mi
Weather by CustomWeather, © 2015

See weather overviewHow to use our weather pages